Location: ???????
(55.4362°N, 38.1183°E)
Time: 03:19:34
(UTC+00:00)

Cosmos 2297 - Pass Details

Date: 17 June 2021
Orbit: 836 x 858 km, 71.0° (Epoch: 26 July)

Event Time Altitude Azimuth Distance (km) Brightness Sun altitude
Rises 21:52:17 0° 324° (NW) 3,400 7.7 -11.0°
Reaches altitude 10° 21:54:47 10° 319° (NW) 2,463 6.8 -11.0°
Maximum altitude 22:00:11 49° 247° (WSW) 1,075 4.1 -10.9°
Enters shadow 22:04:56 13° 176° (S) 2,222 5.3 -10.8°
